EDT,Max TemperatureF,Mean TemperatureF,Min TemperatureF,Max Dew PointF,MeanDew PointF,Min DewpointF,Max Humidity, Mean Humidity, Min Humidity, Max Sea Level PressureIn, Mean Sea Level PressureIn, Min Sea Level PressureIn, Max VisibilityMiles, Mean VisibilityMiles, Min VisibilityMiles, Max Wind SpeedMPH, Mean Wind SpeedMPH, Max Gust SpeedMPH,PrecipitationIn, CloudCover, Events, WindDirDegrees
2012-10-1,88,80,73,79,75,71,94,86,63,29.83,29.78,29.74,10,9,2,18,8,26,0.32,3,Rain-Thunderstorm,173
2012-10-2,88,81,75,76,74,71,94,83,61,30.03,29.89,29.79,10,10,10,14,8,21,0.02,2,Rain,205
2012-10-3,82,78,75,76,74,73,94,88,74,30.19,30.11,30.03,10,10,5,10,4,,0.02,5,Rain,183
2012-10-4,84,78,72,78,73,70,100,88,70,30.22,30.18,30.13,10,9,5,13,4,20,0.11,5,Rain-Thunderstorm,349
2012-10-5,84,78,73,77,74,70,94,86,74,30.16,30.09,30.02,10,9,2,23,9,21,0.08,4,Rain-Thunderstorm,52
2012-10-6,82,78,73,76,74,72,97,88,79,30.02,29.96,29.92,10,9,2,14,5,,0.75,4,Rain-Thunderstorm,40
2012-10-7,84,78,72,74,73,71,97,86,71,30.02,29.98,29.95,10,10,10,12,4,,0.00,2,,167
2012-10-8,84,78,73,75,73,71,94,81,69,30.05,30.00,29.96,10,9,5,13,4,23,0.00,4,Rain-Thunderstorm,183
2012-10-9,75,72,64,72,67,63,94,86,73,30.11,30.06,30.01,10,8,3,15,10,17,0.00,7,,349
2012-10-10,78,70,62,66,64,61,96,80,60,30.16,30.11,30.07,10,9,5,14,5,16,0.00,2,,359
2012-10-11,79,72,64,66,62,57,93,78,55,30.22,30.18,30.13,10,10,10,16,5,20,0.00,3,,341
2012-10-12,79,72,64,65,62,61,94,73,54,30.24,30.19,30.15,10,10,10,15,7,17,0.00,2,,3
2012-10-13,82,78,73,69,65,63,76,64,54,30.25,30.20,30.17,10,10,10,18,14,,0.03,4,,68
2012-10-14,84,80,77,72,69,65,76,70,58,30.17,30.10,30.03,10,10,10,21,15,25,0.00,3,,99
2012-10-15,86,78,71,72,70,68,94,80,57,30.01,29.93,29.84,10,10,6,12,5,,0.00,2,,170
2012-10-16,78,71,64,68,61,57,87,67,54,29.92,29.88,29.86,10,10,10,14,8,20,0.00,1,,4
2012-10-17,79,72,66,70,66,61,94,80,64,29.94,29.89,29.86,10,7,1,25,8,32,2.87,6,Rain-Thunderstorm,78
2012-10-18,84,76,68,72,70,65,97,83,54,29.91,29.86,29.81,10,9,4,12,7,,0.04,2,,200
2012-10-19,78,72,68,70,67,64,94,84,65,29.90,29.86,29.82,10,10,10,9,5,24,0.00,3,Rain,283
2012-10-20,80,70,60,68,53,42,96,60,28,29.99,29.92,29.86,10,10,9,10,5,,0.00,0,,284
2012-10-21,75,66,57,59,55,51,84,65,48,30.11,30.06,29.99,10,10,9,14,5,,0.00,0,,349
2012-10-22,79,71,63,66,63,59,87,69,56,30.16,30.11,30.06,10,10,10,21,12,25,0.00,2,,43
2012-10-23,81,78,75,65,63,61,71,63,54,30.12,30.08,30.06,10,10,10,18,13,,0.00,3,,76
2012-10-24,82,78,73,70,67,64,88,71,60,30.10,30.05,30.01,10,9,2,16,12,,0.11,2,Rain,71
2012-10-25,82,80,77,72,70,68,84,73,65,29.99,29.94,29.90,10,9,5,20,15,30,0.04,6,Rain,67
2012-10-26,79,76,73,72,68,64,83,76,68,29.88,29.76,29.68,10,7,3,31,22,43,0.00,6,,14
2012-10-27,73,70,68,65,62,61,83,75,68,29.67,29.60,29.55,10,9,5,25,20,34,0.00,5,,322
2012-10-28,75,67,57,60,56,51,84,70,50,29.77,29.69,29.65,10,10,10,14,10,22,0.00,0,,285
2012-10-29,64,56,48,52,40,32,77,54,34,29.83,29.77,29.70,10,10,10,21,14,29,0.00,1,,287
2012-10-30,64,54,44,34,31,23,63,42,22,29.91,29.82,29.76,10,10,10,16,10,29,0.00,0,,269
2012-10-31,70,58,46,48,38,32,71,50,28,30.02,29.96,29.90,10,10,10,18,9,26,0.00,0,,257